ACH2055 HUEN-EPWA

Flight info

Callsign ACH2055
Flight time N/A
Altitude 30000
Route UVBAX2B UVBAX UG656 UBETI UN553 NALOS UT136 GOTOD UB527 OVELA B527 JUB L567 IMDUR P315 SOMAK M863 DAREV M565 LUGAV L321 RALSU Q734 NOGLI L551 ANTAR UW54 RDS UN128 BANRO UG80 EKI UN618 VADEN DCT BULEN DCT RUMUK/K0852F300 M977 DIBED/N0459F300 N195 MOSIR
Aircraft B738/M-SDE2E3FGHIRWXY/LB1

Departure

Time 2026-04-30 14:31
Airport Entebbe International Airport (HUEN)

Arrival

Time N/A
Airport Warsaw Chopin Airport (EPWA)
Time Latitude Longitude Altitude Speed Heading
2026-04-30 14:21 0.04390 32.44201 3779 ft 0 kts 82°
2026-04-30 14:22 0.04388 32.44183 3779 ft 3 kts 24°
2026-04-30 14:22 0.04369 32.44175 3785 ft 3 kts 53°
2026-04-30 14:23 0.04348 32.44141 3779 ft 3 kts 63°
2026-04-30 14:23 0.04334 32.44126 3779 ft 0 kts 351°
2026-04-30 14:26 0.04338 32.44125 3779 ft 2 kts 351°
2026-04-30 14:26 0.04373 32.44095 3781 ft 7 kts 275°
2026-04-30 14:27 0.04369 32.44035 3785 ft 11 kts 263°
2026-04-30 14:27 0.04382 32.43964 3778 ft 11 kts 328°
2026-04-30 14:27 0.04456 32.43946 3784 ft 11 kts 348°
2026-04-30 14:28 0.04626 32.43924 3777 ft 12 kts 352°
2026-04-30 14:28 0.04710 32.43911 3779 ft 12 kts 351°
2026-04-30 14:28 0.04793 32.43900 3781 ft 12 kts 354°
2026-04-30 14:28 0.04873 32.43893 3782 ft 12 kts 352°
2026-04-30 14:29 0.05026 32.43865 3779 ft 11 kts 349°
2026-04-30 14:29 0.05057 32.43794 3780 ft 6 kts 264°
2026-04-30 14:30 0.04942 32.43706 3782 ft 33 kts 174°
2026-04-30 14:31 0.03539 32.43902 3773 ft 158 kts 172°
2026-04-30 14:31 0.01205 32.44246 4754 ft 171 kts 172°
2026-04-30 14:31 0.00010 32.44419 5318 ft 175 kts 172°
2026-04-30 14:32 -0.02602 32.44776 5604 ft 201 kts 172°
2026-04-30 14:32 -0.03901 32.45268 5625 ft 212 kts 140°
2026-04-30 14:32 -0.04645 32.46615 5707 ft 237 kts 102°
2026-04-30 14:33 -0.04572 32.48278 5866 ft 250 kts 73°
2026-04-30 14:33 -0.01924 32.50739 6363 ft 285 kts 14°
2026-04-30 14:33 0.00064 32.50886 6978 ft 289 kts 358°
2026-04-30 14:34 0.01400 32.50790 7374 ft 293 kts 354°
2026-04-30 14:34 0.03442 32.50558 8158 ft 295 kts 353°
2026-04-30 14:34 0.05471 32.50303 9046 ft 296 kts 353°
2026-04-30 14:34 0.07520 32.50051 9891 ft 296 kts 354°
2026-04-30 14:35 0.11792 32.49554 10677 ft 330 kts 354°
2026-04-30 14:35 0.14162 32.49378 10843 ft 352 kts 359°
2026-04-30 14:35 0.16681 32.49358 10985 ft 372 kts
2026-04-30 14:36 0.19340 32.49395 11165 ft 389 kts
2026-04-30 14:36 0.22068 32.49445 11609 ft 395 kts
2026-04-30 14:36 0.24825 32.49488 12171 ft 397 kts
2026-04-30 14:36 0.27595 32.49522 12747 ft 400 kts
2026-04-30 14:37 0.30384 32.49547 13292 ft 403 kts
2026-04-30 14:37 0.33198 32.49565 13818 ft 406 kts
2026-04-30 14:37 0.36032 32.49579 14251 ft 409 kts
2026-04-30 14:37 0.38887 32.49590 14704 ft 411 kts
2026-04-30 14:38 0.41759 32.49599 15160 ft 414 kts
2026-04-30 14:38 0.44645 32.49608 15595 ft 417 kts
2026-04-30 14:38 0.47555 32.49617 16030 ft 419 kts
2026-04-30 14:38 0.50482 32.49626 16459 ft 422 kts
2026-04-30 14:39 0.53430 32.49635 16861 ft 425 kts
2026-04-30 14:39 0.56361 32.49644 17290 ft 427 kts
2026-04-30 14:39 0.59337 32.49653 17726 ft 429 kts
2026-04-30 14:40 0.65345 32.49672 18452 ft 434 kts
2026-04-30 14:40 0.68370 32.49682 18772 ft 437 kts
2026-04-30 14:40 0.71420 32.49691 19090 ft 439 kts
2026-04-30 14:40 0.74484 32.49701 19396 ft 441 kts
2026-04-30 14:41 0.77562 32.49711 19681 ft 444 kts
2026-04-30 14:41 0.80660 32.49721 19969 ft 447 kts
2026-04-30 14:41 0.83776 32.49731 20260 ft 449 kts
2026-04-30 14:41 0.86906 32.49740 20536 ft 451 kts
2026-04-30 14:42 0.90060 32.49749 20807 ft 454 kts
2026-04-30 14:42 0.93222 32.49759 21091 ft 455 kts
2026-04-30 14:42 0.96394 32.49769 21355 ft 458 kts
2026-04-30 14:42 0.99586 32.49780 21638 ft 459 kts
2026-04-30 14:43 1.02782 32.49791 21903 ft 461 kts
2026-04-30 14:43 1.05995 32.49801 22133 ft 463 kts
2026-04-30 14:43 1.09225 32.49811 22366 ft 465 kts
2026-04-30 14:43 1.12471 32.49821 22596 ft 467 kts
2026-04-30 14:44 1.15731 32.49832 22832 ft 469 kts
2026-04-30 14:44 1.18998 32.49842 23049 ft 470 kts
2026-04-30 14:44 1.22272 32.49852 23254 ft 472 kts
2026-04-30 14:44 1.25565 32.49862 23469 ft 474 kts
2026-04-30 14:45 1.28876 32.49872 23622 ft 476 kts
2026-04-30 14:45 1.32176 32.49882 23871 ft 475 kts
2026-04-30 14:45 1.35483 32.49893 24074 ft 475 kts
2026-04-30 14:45 1.38800 32.49903 24223 ft 477 kts
2026-04-30 14:46 1.42124 32.49914 24362 ft 479 kts
2026-04-30 14:46 1.45461 32.49924 24514 ft 481 kts
2026-04-30 14:46 1.48814 32.49935 24691 ft 481 kts
2026-04-30 14:46 1.52169 32.49945 24848 ft 483 kts
2026-04-30 14:47 1.55532 32.49956 24997 ft 484 kts
2026-04-30 14:47 1.58910 32.49967 25149 ft 485 kts
2026-04-30 14:47 1.62289 32.49977 25297 ft 487 kts
2026-04-30 14:47 1.65683 32.49988 25439 ft 488 kts
2026-04-30 14:48 1.69079 32.49999 25581 ft 489 kts
2026-04-30 14:48 1.72450 32.50009 25733 ft 490 kts
2026-04-30 14:48 1.75864 32.50020 25880 ft 491 kts
2026-04-30 14:48 1.79285 32.50031 26020 ft 492 kts
2026-04-30 14:49 1.82722 32.50042 26160 ft 493 kts
2026-04-30 14:49 1.86153 32.50052 26302 ft 494 kts
2026-04-30 14:49 1.89596 32.50063 26429 ft 495 kts
2026-04-30 14:49 1.93054 32.50074 26574 ft 496 kts
2026-04-30 14:50 1.99978 32.50096 26816 ft 498 kts
2026-04-30 14:50 2.03451 32.50107 26952 ft 499 kts
2026-04-30 14:51 2.10341 32.50128 27347 ft 497 kts
2026-04-30 14:51 2.13798 32.50139 27559 ft 497 kts
2026-04-30 14:51 2.20712 32.50161 27938 ft 497 kts
2026-04-30 14:52 2.24163 32.50172 28139 ft 496 kts
2026-04-30 14:52 2.31069 32.50194 28584 ft 495 kts
2026-04-30 14:52 2.34516 32.50204 28794 ft 495 kts
2026-04-30 14:53 2.41405 32.50226 29219 ft 495 kts
2026-04-30 14:53 2.44848 32.50237 29458 ft 494 kts
2026-04-30 14:54 2.51716 32.50259 29919 ft 494 kts
2026-04-30 14:54 2.58582 32.50280 30339 ft 493 kts
2026-04-30 14:55 2.65429 32.50302 30826 ft 490 kts
2026-04-30 14:55 2.68843 32.50313 31064 ft 490 kts
2026-04-30 14:55 2.75645 32.50334 31544 ft 488 kts
2026-04-30 14:56 2.82378 32.50355 32055 ft 486 kts
2026-04-30 14:56 2.89137 32.50377 32572 ft 485 kts
2026-04-30 14:57 2.92506 32.50387 32845 ft 484 kts
2026-04-30 14:57 2.99228 32.50408 33380 ft 482 kts
2026-04-30 14:58 3.05933 32.50430 33927 ft 480 kts
2026-04-30 14:58 3.09274 32.50440 34159 ft 480 kts
2026-04-30 14:58 3.15939 32.50461 34643 ft 478 kts
2026-04-30 14:59 3.22580 32.50482 35106 ft 477 kts
2026-04-30 15:00 3.32513 32.50514 35715 ft 476 kts
2026-04-30 15:00 3.39158 32.50535 35888 ft 479 kts
2026-04-30 15:01 3.45810 32.50556 35899 ft 477 kts
2026-04-30 15:01 3.55710 32.50587 35899 ft 473 kts
2026-04-30 15:02 3.62276 32.50607 35902 ft 471 kts
2026-04-30 15:03 3.78649 32.50659 35911 ft 472 kts
2026-04-30 15:04 3.95159 32.50712 35908 ft 476 kts
2026-04-30 15:06 4.11760 32.50764 35903 ft 477 kts
2026-04-30 15:07 4.25055 32.50806 35892 ft 477 kts
2026-04-30 15:08 4.38282 32.50848 35875 ft 476 kts
2026-04-30 15:09 4.54822 32.50901 35865 ft 475 kts
2026-04-30 15:10 4.68022 32.50942 35850 ft 474 kts
2026-04-30 15:11 4.87785 32.51005 35846 ft 473 kts
2026-04-30 15:13 5.04247 32.51057 35838 ft 473 kts
2026-04-30 15:14 5.27297 32.51130 35830 ft 475 kts
2026-04-30 15:17 5.57084 32.51225 35823 ft 477 kts
2026-04-30 15:19 5.83665 32.51309 35813 ft 477 kts